Погода в Чуфарове

Россия / Ульяновская область     54°05′57″N   47°20′42″E
темп.,
°C
ветер,
м/с
пор.,
м/с
влажн.,
%
обл.,
%
осадки,
мм/ч
давл.,
гПа
погр.,
м
6 марта, сб
сб601:00−11зюз379430 0.0 1012104
04:00−12зюз479518 0.0 1013122
07:00−14з349616 0.0 101450
10:00−11зсз249543 0.0 1016183
13:00−7сз227766 0.0 1016388
16:00−6юз137284 0.0 1014639
19:00−10юз1186100 0.0 101421
22:00−12зсз119399 0.0 101421
7 марта, вс
вс701:00−13з119671 0.0 101320
04:00−15з229658 0.0 101320
07:00−15зюз229763 0.0 101320
10:00−11зюз469356 0.0 1013248
13:00−7юз698464 0.0 1010861
16:00−6юз7118182 0.1 1007987
19:00−8ююз81592100 0.1 1004888
22:00−6ююз91792100 0.9 10001106
8 марта, пн
пн801:00−5юз101792100 0.7 996980
04:00−8з61476100 1.3 997510
07:00−12юз512850 0.0 999207
10:00−8зюз7138219 0.0 1000563
13:00−4юз915760 0.0 9991296
16:00−4зюз7137850 0.4 9991603
19:00−9зюз5138774 0.3 1001366
22:00−11зюз5119341 0.3 1004224
9 марта, вт
вт901:00−13зюз510930 0.0 1005197
04:00−14зюз479525 0.0 1007126
07:00−15з489673 0.0 1009169
10:00−13зсз589377 0.0 1010430
13:00−11зсз5788100 0.0 1012639
16:00−10сз5786100 0.1 1012717
19:00−16сз349598 0.0 101375
22:00−19зсз239985 0.1 101520
10 марта, ср
ср1001:00−21зсз3310066 0.0 101624
04:00−23зсз3310066 0.0 101730
07:00−25зсз3510085 0.0 101871
10:00−21сз479792 0.1 1019296
13:00−18сз5791100 0.0 1020532
16:00−18сз6889100 0.1 1020615
19:00−22сз4996100 0.0 1022228
22:00−26сз349975 0.0 102473